When you browse on this site, cookies collect data to enhance your experience and personalize the content and advertising you see.
Visit our Privacy Policy to learn more. By continuing to use the site, you agree to this use of cookies and data.
  • In Hungary
  • List of Countries
  • For 7 days
  • Water Temperature
  • Weather Map
  • News
  • Weather Widgets
  • user-avatar
    Login

    Hourly Weather Montana

    Today, 30 May, Saturday

    Time Temperature Precipitation Wind Pressure Humidity
    00:00 +10°C° 0 mm 2 mps 733 mmHg 86%
    01:00 +10°C° 0 mm 2 mps 733 mmHg 87%
    02:00 +10°C° 0 mm 2 mps 733 mmHg 87%
    03:00 +10°C° 0 mm 2 mps 733 mmHg 87%
    04:00 +10°C° 0 mm 2 mps 733 mmHg 87%
    05:00 +9°C° 0 mm 2 mps 733 mmHg 87%
    06:00 +12°C° 0 mm 2 mps 733 mmHg 83%
    07:00 +14°C° 0 mm 2 mps 733 mmHg 79%
    08:00 +14°C° 0 mm 3 mps 734 mmHg 75%
    09:00 +16°C° 0.1 mm 3 mps 733 mmHg 71%
    10:00 +17°C° 0.1 mm 4 mps 733 mmHg 66%
    11:00 +18°C° 0.1 mm 4 mps 733 mmHg 62%
    12:00 +19°C° 0.2 mm 4 mps 732 mmHg 61%
    13:00 +19°C° 0.2 mm 3 mps 732 mmHg 60%
    14:00 +20°C° 0.2 mm 3 mps 732 mmHg 60%
    15:00 +20°C° 0.2 mm 3 mps 731 mmHg 60%
    16:00 +20°C° 0.2 mm 3 mps 731 mmHg 61%
    17:00 +20°C° 0.2 mm 3 mps 731 mmHg 62%
    18:00 +18°C° 0.3 mm 2 mps 731 mmHg 68%
    19:00 +16°C° 0.3 mm 2 mps 731 mmHg 75%
    20:00 +15°C° 0.3 mm 2 mps 731 mmHg 81%
    21:00 +14°C° 0.1 mm 2 mps 731 mmHg 82%
    22:00 +14°C° 0.1 mm 2 mps 732 mmHg 83%
    23:00 +13°C° 0.1 mm 2 mps 732 mmHg 83%

    Tomorrow, 31 May, Sunday

    Time Temperature Precipitation Wind Pressure Humidity
    00:00 +13°C° 0 mm 2 mps 732 mmHg 85%
    01:00 +12°C° 0 mm 2 mps 732 mmHg 86%
    02:00 +12°C° 0 mm 2 mps 732 mmHg 87%
    03:00 +12°C° 0 mm 2 mps 732 mmHg 87%
    04:00 +12°C° 0 mm 2 mps 732 mmHg 88%
    05:00 +10°C° 0 mm 2 mps 732 mmHg 89%
    06:00 +13°C° 0 mm 2 mps 732 mmHg 84%
    07:00 +14°C° 0 mm 2 mps 732 mmHg 79%
    08:00 +14°C° 0 mm 3 mps 732 mmHg 73%
    09:00 +16°C° 0 mm 3 mps 732 mmHg 67%
    10:00 +18°C° 0 mm 3 mps 732 mmHg 61%
    11:00 +19°C° 0 mm 4 mps 732 mmHg 55%
    12:00 +19°C° 0 mm 4 mps 731 mmHg 55%
    13:00 +20°C° 0 mm 4 mps 731 mmHg 54%
    14:00 +20°C° 0 mm 4 mps 730 mmHg 54%
    15:00 +20°C° 0.2 mm 4 mps 730 mmHg 57%
    16:00 +19°C° 0.2 mm 4 mps 730 mmHg 59%
    17:00 +19°C° 0.2 mm 4 mps 730 mmHg 62%
    18:00 +17°C° 0.1 mm 4 mps 730 mmHg 69%
    19:00 +14°C° 0.1 mm 3 mps 730 mmHg 76%
    20:00 +12°C° 0.1 mm 3 mps 730 mmHg 83%
    21:00 +11°C° 0 mm 3 mps 731 mmHg 85%
    22:00 +10°C° 0 mm 2 mps 731 mmHg 86%
    23:00 +10°C° 0 mm 2 mps 731 mmHg 88%

    Day after tomorrow, 1 June, Monday

    Time Temperature Precipitation Wind Pressure Humidity
    00:00 +10°C° 0 mm 2 mps 731 mmHg 86%
    01:00 +9°C° 0 mm 2 mps 730 mmHg 85%
    02:00 +9°C° 0 mm 2 mps 730 mmHg 83%
    03:00 +10°C° 0 mm 2 mps 730 mmHg 83%
    04:00 +10°C° 0 mm 2 mps 730 mmHg 82%
    05:00 +10°C° 0 mm 2 mps 729 mmHg 81%
    06:00 +12°C° 0.1 mm 2 mps 729 mmHg 82%
    07:00 +12°C° 0.1 mm 2 mps 730 mmHg 84%
    08:00 +13°C° 0.1 mm 2 mps 730 mmHg 85%
    09:00 +13°C° 0.4 mm 2 mps 730 mmHg 84%
    10:00 +13°C° 0.4 mm 3 mps 730 mmHg 83%
    11:00 +13°C° 0.4 mm 3 mps 730 mmHg 83%
    12:00 +14°C° 0.2 mm 3 mps 729 mmHg 80%
    13:00 +14°C° 0.2 mm 4 mps 729 mmHg 78%
    14:00 +15°C° 0.2 mm 4 mps 729 mmHg 75%
    15:00 +15°C° 0.2 mm 4 mps 729 mmHg 75%
    16:00 +15°C° 0.2 mm 4 mps 729 mmHg 75%
    17:00 +16°C° 0.2 mm 5 mps 729 mmHg 75%
    18:00 +14°C° 0.1 mm 4 mps 729 mmHg 79%
    19:00 +13°C° 0.1 mm 4 mps 729 mmHg 82%
    20:00 +12°C° 0.1 mm 3 mps 729 mmHg 86%
    21:00 +12°C° 0.1 mm 3 mps 729 mmHg 86%
    22:00 +12°C° 0.1 mm 3 mps 729 mmHg 87%
    23:00 +12°C° 0.1 mm 2 mps 730 mmHg 87%

    2 June, Tuesday

    Time Temperature Precipitation Wind Pressure Humidity
    00:00 +12°C° 0.1 mm 2 mps 730 mmHg 88%
    01:00 +12°C° 0.1 mm 2 mps 729 mmHg 88%
    02:00 +12°C° 0.1 mm 2 mps 729 mmHg 89%
    03:00 +12°C° 0.1 mm 2 mps 729 mmHg 89%
    04:00 +12°C° 0.1 mm 2 mps 729 mmHg 89%
    05:00 +12°C° 0.1 mm 1 mps 730 mmHg 90%
    06:00 +12°C° 0.3 mm 2 mps 730 mmHg 88%
    07:00 +13°C° 0.3 mm 2 mps 730 mmHg 86%
    08:00 +14°C° 0.3 mm 2 mps 730 mmHg 83%
    09:00 +13°C° 0.2 mm 3 mps 730 mmHg 80%
    10:00 +14°C° 0.2 mm 3 mps 730 mmHg 77%
    11:00 +15°C° 0.2 mm 4 mps 731 mmHg 74%
    12:00 +15°C° 0.2 mm 4 mps 730 mmHg 71%
    13:00 +15°C° 0.2 mm 5 mps 730 mmHg 68%
    14:00 +16°C° 0.2 mm 5 mps 730 mmHg 66%
    15:00 +16°C° 0.1 mm 5 mps 730 mmHg 66%
    16:00 +16°C° 0.1 mm 5 mps 730 mmHg 66%
    17:00 +15°C° 0.1 mm 5 mps 730 mmHg 66%
    18:00 +14°C° 0.1 mm 5 mps 730 mmHg 69%
    19:00 +12°C° 0.1 mm 4 mps 730 mmHg 73%
    20:00 +11°C° 0.1 mm 3 mps 730 mmHg 76%
    21:00 +10°C° 0 mm 3 mps 730 mmHg 77%
    22:00 +10°C° 0 mm 3 mps 731 mmHg 78%
    23:00 +9°C° 0 mm 2 mps 731 mmHg 79%

    3 June, Wednesday

    Time Temperature Precipitation Wind Pressure Humidity
    00:00 +8°C° 0 mm 2 mps 731 mmHg 79%
    01:00 +8°C° 0 mm 2 mps 730 mmHg 79%
    02:00 +8°C° 0 mm 2 mps 730 mmHg 79%
    03:00 +8°C° 0 mm 2 mps 730 mmHg 79%
    04:00 +7°C° 0 mm 2 mps 730 mmHg 80%
    05:00 +7°C° 0 mm 2 mps 730 mmHg 80%
    06:00 +9°C° 0 mm 2 mps 730 mmHg 76%
    07:00 +12°C° 0 mm 2 mps 730 mmHg 72%
    08:00 +13°C° 0 mm 2 mps 730 mmHg 68%
    09:00 +14°C° 0 mm 2 mps 730 mmHg 64%
    10:00 +15°C° 0 mm 2 mps 730 mmHg 60%
    11:00 +17°C° 0 mm 2 mps 729 mmHg 56%
    12:00 +17°C° 0 mm 3 mps 729 mmHg 55%
    13:00 +18°C° 0 mm 3 mps 729 mmHg 54%
    14:00 +18°C° 0 mm 3 mps 729 mmHg 52%
    15:00 +18°C° 0.1 mm 3 mps 729 mmHg 53%
    16:00 +18°C° 0.1 mm 3 mps 728 mmHg 54%
    17:00 +18°C° 0.1 mm 3 mps 728 mmHg 55%
    18:00 +16°C° 0.1 mm 2 mps 728 mmHg 63%
    19:00 +15°C° 0.1 mm 2 mps 728 mmHg 70%
    20:00 +13°C° 0.1 mm 1 mps 728 mmHg 78%
    21:00 +12°C° 0 mm 1 mps 729 mmHg 78%
    22:00 +12°C° 0 mm 2 mps 729 mmHg 78%
    23:00 +10°C° 0 mm 2 mps 730 mmHg 79%

    4 June, Thursday

    Time Temperature Precipitation Wind Pressure Humidity
    00:00 +10°C° 0 mm 2 mps 730 mmHg 79%
    01:00 +9°C° 0 mm 2 mps 730 mmHg 79%
    02:00 +9°C° 0 mm 2 mps 729 mmHg 79%
    03:00 +9°C° 0 mm 2 mps 730 mmHg 79%
    04:00 +9°C° 0 mm 2 mps 730 mmHg 78%
    05:00 +9°C° 0 mm 2 mps 730 mmHg 77%
    06:00 +12°C° 0 mm 2 mps 730 mmHg 72%
    07:00 +14°C° 0 mm 2 mps 730 mmHg 67%
    08:00 +18°C° 0 mm 1 mps 730 mmHg 62%
    09:00 +18°C° 0 mm 2 mps 730 mmHg 58%
    10:00 +19°C° 0 mm 3 mps 730 mmHg 54%
    11:00 +20°C° 0 mm 3 mps 730 mmHg 50%
    12:00 +20°C° 0 mm 3 mps 730 mmHg 49%
    13:00 +21°C° 0 mm 3 mps 730 mmHg 48%
    14:00 +21°C° 0 mm 4 mps 730 mmHg 47%
    15:00 +21°C° 0 mm 4 mps 730 mmHg 49%
    16:00 +21°C° 0 mm 3 mps 730 mmHg 51%
    17:00 +21°C° 0 mm 3 mps 730 mmHg 53%
    18:00 +19°C° 0 mm 3 mps 730 mmHg 59%
    19:00 +17°C° 0 mm 2 mps 730 mmHg 65%
    20:00 +15°C° 0 mm 1 mps 730 mmHg 71%
    21:00 +14°C° 0 mm 2 mps 730 mmHg 72%
    22:00 +14°C° 0 mm 2 mps 730 mmHg 72%
    23:00 +13°C° 0 mm 2 mps 731 mmHg 73%
    Show more